Location: 相模原市立博物館
(35.5593°N, 139.3931°E)
Time: 05:50:13
(UTC+09:00)

PCSat - Visible Passes

Search period start: 23 January 2022 00:00
Search period end: 02 February 2022 00:00
Orbit: 784 x 794 km, 67.1° (Epoch: 22 January)

Date Brightness Start Highest point End Pass type
(mag) Time Alt. Az. Time Alt. Az. Time Alt. Az.
23 Jan 12.1 05:34:52 10° NNE 05:37:29 13° NE 05:40:07 10° ENE visible
25 Jan 10.6 06:14:08 10° NNW 06:19:23 47° ENE 06:24:35 10° SE visible
26 Jan 11.1 05:43:17 10° N 05:48:13 34° ENE 05:53:07 10° ESE visible
27 Jan 11.5 05:12:32 10° N 05:17:00 25° NE 05:21:26 10° ESE visible
28 Jan 11.9 04:41:57 10° N 04:45:43 19° NE 04:49:29 10° E visible
29 Jan 12.2 04:11:39 10° NNE 04:14:24 14° NE 04:17:09 10° ENE visible
29 Jan 9.6 05:53:00 10° NNW 05:58:27 84° WSW 06:03:52 10° SSE visible
30 Jan 12.4 03:42:45 10° NE 03:43:01 10° NE 03:43:18 10° NE visible
30 Jan 9.8 05:21:58 10° NNW 05:27:23 70° ENE 05:32:45 10° SE visible
30 Jan 11.6 18:20:30 10° SE 18:20:53 11° SE 18:20:53 11° SE visible
30 Jan 11.7 20:00:11 10° SW 20:01:40 19° SW 20:01:40 19° SW visible
31 Jan 10.4 04:51:45 14° NNW 04:56:16 49° ENE 05:01:29 10° SE visible
31 Jan 10.3 19:29:06 10° SSW 19:32:42 44° SSW 19:32:42 44° SSW visible
01 Feb 10.9 04:22:11 21° N 04:25:06 35° ENE 04:30:02 10° ESE visible
01 Feb 10.5 06:03:46 10° NW 06:08:17 27° WSW 06:12:47 10° SSW visible
01 Feb 9.5 18:58:10 10° S 19:03:28 59° ESE 19:03:43 58° E visible
01 Feb 12.3 20:43:29 10° W 20:44:30 13° W 20:44:30 13° W visible
